KD7TTL Weather Reports


Display with metric or nautical units.
time (UTC)temp
F
wind
direction
speed
MPH
gust
MPH
rain 1hr
in
rain 24hr
in
rain mn
in
humidity
%
barometer
mb
20260502163003 56 51 4.0 8.0 0.00 0.00 0.00 84 1018.2
20260502162507 56 38 3.0 9.0 0.00 0.00 0.00 85 1018.2
20260502162007 55 19 3.0 9.0 0.00 0.00 0.00 85 1018.1
20260502161506 55 298 1.0 6.0 0.00 0.00 0.00 85 1018.2
20260502161007 55 243 1.0 4.0 0.00 0.00 0.00 85 1018.3
20260502160508 55 34 1.0 3.0 0.00 0.00 0.00 85 1018.4
20260502152004 52 34 1.0 3.0 0.00 0.00 0.00 89 1018.2
20260502151509 52 38 1.0 3.0 0.00 0.00 0.00 91 1018.2
20260502151006 51 178 1.0 5.0 0.00 0.00 0.00 92 1018.2
20260502150504 51 93 1.0 5.0 0.00 0.00 0.00 93 1018.1
20260502130506 46 41 0.0 2.0 0.00 0.00 0.00 93 1018.3
20260502123505 46 34 0.0 1.0 0.00 0.00 0.00 92 1018.7
20260502123019 46 9 0.0 2.0 0.00 0.00 0.00 92 1018.6
20260502122503 46 51 0.0 2.0 0.00 0.00 0.00 92 1018.7
20260502122009 46 51 0.0 1.0 0.00 0.00 0.00 92 1018.6
20260502121515 46 120 0.0 1.0 0.00 0.00 0.00 92 1018.5
20260502121007 46 93 0.0 2.0 0.00 0.00 0.00 91 1018.4
20260502120508 46 9 0.0 2.0 0.00 0.00 0.00 91 1018.4
20260502115509 46 178 0.0 1.0 0.00 0.00 0.00 91 1018.2
20260502115006 46 309 0.0 1.0 0.00 0.00 0.00 90 1018.1
20260502114516 46 153 0.0 1.0 0.00 0.00 0.00 90 1018.0
20260502114008 47 178 0.0 1.0 0.00 0.00 0.00 91 1017.7
20260502113509 47 93 0.0 1.0 0.00 0.00 0.00 91 1017.6
20260502113018 47 51 0.0 1.0 0.00 0.00 0.00 91 1017.6
20260502112507 47 9 0.0 1.0 0.00 0.00 0.00 90 1017.7
20260502112007 47 51 0.0 1.0 0.00 0.00 0.00 90 1017.7
20260502111517 47 51 0.0 1.0 0.00 0.00 0.00 90 1017.7
20260502111006 47 51 0.0 1.0 0.00 0.00 0.00 90 1017.7
20260502110507 47 360 0.0 1.0 0.00 0.00 0.00 90 1017.8
20260502110022 47 51 0.0 1.0 0.00 0.00 0.00 90 1017.8
20260502105507 47 51 0.0 1.0 0.00 0.00 0.00 90 1017.7
20260502105006 48 291 0.0 1.0 0.00 0.00 0.00 90 1017.8
20260502104537 48 309 0.0 2.0 0.00 0.00 0.00 90 1017.9
20260502104006 48 9 0.0 2.0 0.00 0.00 0.00 90 1018.0
20260502103503 48 41 0.0 1.0 0.00 0.00 0.00 90 1018.1
20260502103003 48 9 0.0 1.0 0.00 0.00 0.00 90 1018.2
20260502102502 48 51 0.0 1.0 0.00 0.00 0.00 90 1018.3
20260502102003 48 9 0.0 1.0 0.00 0.00 0.00 89 1018.1
20260502101503 48 309 0.0 1.0 0.00 0.00 0.00 89 1018.1
20260502101003 49 51 0.0 1.0 0.00 0.00 0.00 89 1018.1
20260502100503 49 309 0.0 1.0 0.00 0.00 0.00 89 1018.0
20260502091509 50 9 0.0 2.0 0.00 0.00 0.00 89 1017.7
20260502091004 50 325 0.0 2.0 0.00 0.00 0.00 89 1017.7
20260502090504 50 34 1.0 2.0 0.00 0.00 0.00 89 1017.7
20260502071505 51 309 0.0 1.0 0.00 0.00 0.00 85 1017.8
20260502071003 51 120 0.0 1.0 0.00 0.00 0.00 85 1017.8
20260502070502 51 51 0.0 1.0 0.00 0.00 0.00 84 1017.8
20260502070002 51 51 0.0 1.0 0.00 0.00 0.00 84 1017.7
20260502065504 51 93 0.0 2.0 0.00 0.00 0.00 84 1017.6
20260502065002 51 137 0.0 2.0 0.00 0.00 0.00 84 1017.7
20260502064507 52 68 0.0 2.0 0.00 0.00 0.00 83 1017.6
20260502064003 52 9 0.0 2.0 0.00 0.00 0.00 83 1017.7
20260502063503 52 149 1.0 2.0 0.00 0.00 0.00 82 1017.7
20260502063002 52 9 0.0 2.0 0.00 0.00 0.00 82 1017.4
20260502062503 53 68 0.0 1.0 0.00 0.00 0.00 81 1017.5
20260502062004 53 265 0.0 1.0 0.00 0.00 0.00 81 1017.5
20260502061505 53 34 0.0 0.0 0.00 0.00 0.00 81 1017.4
20260502061003 53 265 0.0 1.0 0.00 0.00 0.00 81 1017.5
20260502060503 53 93 0.0 1.0 0.00 0.00 0.00 80 1017.5
20260502060003 53 51 0.0 1.0 0.00 0.00 0.00 80 1017.4
20260502055503 53 126 0.0 1.0 0.00 0.00 0.00 80 1017.5
20260502055005 53 178 0.0 1.0 0.00 0.00 0.00 80 1017.4
20260502054509 54 9 0.0 1.0 0.00 0.00 0.00 80 1017.4
20260502054001 54 9 0.0 2.0 0.00 0.00 0.00 79 1017.4
20260502053502 54 137 0.0 2.0 0.00 0.00 0.00 79 1017.4
20260502053003 54 9 0.0 2.0 0.00 0.00 0.00 78 1017.4
20260502052502 54 309 0.0 2.0 0.00 0.00 0.00 78 1017.5
20260502052002 54 265 0.0 1.0 0.00 0.00 0.00 78 1017.5
20260502051503 55 265 0.0 2.0 0.00 0.00 0.00 77 1017.3
20260502051002 55 34 0.0 2.0 0.00 0.00 0.00 76 1017.4
20260502050506 55 309 0.0 1.0 0.00 0.00 0.00 76 1017.3
20260502050024 55 309 0.0 1.0 0.00 0.00 0.00 76 1017.2
20260502045507 55 265 0.0 2.0 0.00 0.00 0.00 76 1017.0
20260502045011 56 34 0.0 2.0 0.00 0.00 0.00 76 1017.1
20260502044525 56 146 1.0 2.0 0.00 0.00 0.00 74 1017.1
20260502044010 56 51 0.0 2.0 0.00 0.00 0.00 73 1017.0
20260502043510 57 309 1.0 2.0 0.00 0.00 0.00 73 1016.9
20260502043024 57 9 0.0 1.0 0.00 0.00 0.00 72 1017.1
20260502042508 57 298 0.0 2.0 0.00 0.00 0.00 71 1017.1
20260502042010 58 93 0.0 2.0 0.00 0.00 0.00 71 1017.1
20260502041526 58 178 1.0 2.0 0.00 0.00 0.00 70 1016.9
20260502041008 58 265 0.0 2.0 0.00 0.00 0.00 70 1016.9
20260502040509 58 9 0.0 3.0 0.00 0.00 0.00 68 1016.9
20260502040026 59 51 1.0 3.0 0.00 0.00 0.00 69 1016.7
20260502035509 59 51 0.0 3.0 0.00 0.00 0.00 69 1016.8
20260502035010 59 51 0.0 3.0 0.00 0.00 0.00 69 1017.0
20260502034537 59 309 0.0 3.0 0.00 0.00 0.00 69 1017.0
20260502034007 59 15 1.0 5.0 0.00 0.00 0.00 69 1017.1
20260502033514 60 205 1.0 5.0 0.00 0.00 0.00 68 1017.2
20260502033030 60 165 1.0 2.0 0.00 0.00 0.00 68 1016.9
20260502032506 60 51 0.0 3.0 0.00 0.00 0.00 67 1016.6
20260502032011 60 325 1.0 3.0 0.00 0.00 0.00 65 1016.5
20260502031530 61 67 0.0 3.0 0.00 0.00 0.00 68 1016.3
20260502031009 61 34 1.0 3.0 0.00 0.00 0.00 66 1016.4
20260502030510 61 34 1.0 2.0 0.00 0.00 0.00 65 1016.4
20260502030023 61 51 0.0 3.0 0.00 0.00 0.00 65 1016.5
20260502025509 61 51 0.0 3.0 0.00 0.00 0.00 65 1016.5
20260502025010 61 178 0.0 3.0 0.00 0.00 0.00 66 1016.4
20260502024528 61 38 0.0 4.0 0.00 0.00 0.00 66 1016.3
20260502024010 61 48 2.0 5.0 0.00 0.00 0.00 66 1016.3
20260502023505 62 9 0.0 5.0 0.00 0.00 0.00 68 1016.1
20260502023003 62 34 1.0 5.0 0.00 0.00 0.00 67 1016.0
20260502022504 62 9 1.0 5.0 0.00 0.00 0.00 66 1016.0
20260502022004 63 31 2.0 5.0 0.00 0.00 0.00 66 1016.0
20260502021503 63 45 1.0 4.0 0.00 0.00 0.00 65 1016.0
20260502021003 63 43 1.0 4.0 0.00 0.00 0.00 65 1015.8
20260502020503 64 46 2.0 4.0 0.00 0.00 0.00 64 1015.8
20260502020003 64 51 1.0 8.0 0.00 0.00 0.00 64 1016.0
20260502015512 64 32 1.0 8.0 0.00 0.00 0.00 64 1015.8
20260502015007 64 36 1.0 10.0 0.00 0.00 0.00 64 1015.9
20260502014507 65 40 2.0 10.0 0.00 0.00 0.00 64 1015.9
20260502014002 65 87 1.0 6.0 0.00 0.00 0.00 63 1015.9
20260502013502 65 63 2.0 7.0 0.00 0.00 0.00 62 1015.8
20260502013004 66 316 1.0 7.0 0.00 0.00 0.00 62 1015.8
20260502012502 66 250 2.0 6.0 0.00 0.00 0.00 62 1015.8
20260502012003 67 26 2.0 5.0 0.00 0.00 0.00 61 1015.8
20260502011504 67 265 1.0 4.0 0.00 0.00 0.00 60 1015.8
20260502011003 67 34 1.0 5.0 0.00 0.00 0.00 61 1015.8
20260502010502 67 250 1.0 7.0 0.00 0.00 0.00 61 1015.7
20260502010003 68 243 1.0 7.0 0.00 0.00 0.00 60 1015.7
20260502005503 68 20 1.0 9.0 0.00 0.00 0.00 59 1015.7
20260502005003 68 41 2.0 9.0 0.00 0.00 0.00 58 1015.8
20260502004504 68 26 2.0 9.0 0.00 0.00 0.00 59 1015.6
20260502004005 69 31 2.0 10.0 0.00 0.00 0.00 58 1015.6
20260502003502 70 16 3.0 10.0 0.00 0.00 0.00 58 1015.7
20260502003012 70 30 1.0 6.0 0.00 0.00 0.00 57 1015.7
20260502002502 70 29 1.0 5.0 0.00 0.00 0.00 59 1015.6
20260502002003 71 34 1.0 4.0 0.00 0.00 0.00 58 1015.6
20260502001505 71 76 1.0 4.0 0.00 0.00 0.00 58 1015.5
20260502001003 70 265 1.0 4.0 0.00 0.00 0.00 57 1015.5
20260502000502 70 221 1.0 4.0 0.00 0.00 0.00 56 1015.5
20260502000004 70 137 1.0 7.0 0.00 0.00 0.00 56 1015.5
20260501235503 70 292 1.0 7.0 0.00 0.00 0.00 55 1015.5
20260501235003 71 100 2.0 9.0 0.00 0.00 0.00 55 1015.5
20260501234504 71 239 2.0 11.0 0.00 0.00 0.00 54 1015.5
20260501234003 71 30 4.0 14.0 0.00 0.00 0.00 54 1015.5
20260501233506 71 33 3.0 14.0 0.00 0.00 0.00 53 1015.6
20260501233003 72 286 2.0 11.0 0.00 0.00 0.00 56 1015.7
20260501232506 72 44 1.0 14.0 0.00 0.00 0.00 55 1015.8
20260501232004 72 19 2.0 14.0 0.00 0.00 0.00 55 1015.8
20260501231510 72 24 4.0 12.0 0.00 0.00 0.00 55 1015.9
20260501231003 72 28 3.0 8.0 0.00 0.00 0.00 57 1016.0
20260501230503 72 13 2.0 10.0 0.00 0.00 0.00 56 1016.0
20260501230005 72 26 1.0 10.0 0.00 0.00 0.00 54 1016.1
20260501225503 73 32 3.0 10.0 0.00 0.00 0.00 56 1016.1
20260501225003 73 34 2.0 10.0 0.00 0.00 0.00 54 1016.2
20260501224504 73 17 2.0 10.0 0.00 0.00 0.00 54 1016.2
20260501224002 73 26 2.0 8.0 0.00 0.00 0.00 53 1016.2
20260501223505 73 273 2.0 7.0 0.00 0.00 0.00 53 1016.2
20260501223004 73 22 2.0 6.0 0.00 0.00 0.00 54 1016.2
20260501222506 73 340 1.0 10.0 0.00 0.00 0.00 49 1016.3
20260501222004 73 101 3.0 10.0 0.00 0.00 0.00 48 1016.4
20260501221503 73 225 1.0 8.0 0.00 0.00 0.00 52 1016.4
20260501221005 73 344 1.0 8.0 0.00 0.00 0.00 51 1016.4
20260501220503 73 28 4.0 11.0 0.00 0.00 0.00 46 1016.5
20260501220006 74 38 5.0 11.0 0.00 0.00 0.00 46 1016.6
20260501215503 74 330 1.0 5.0 0.00 0.00 0.00 47 1016.5
20260501215003 74 123 1.0 5.0 0.00 0.00 0.00 49 1016.5
20260501214508 73 51 1.0 8.0 0.00 0.00 0.00 50 1016.6
20260501214001 73 9 1.0 8.0 0.00 0.00 0.00 48 1016.6
20260501213502 73 31 2.0 8.0 0.00 0.00 0.00 49 1016.6
20260501213002 73 325 1.0 12.0 0.00 0.00 0.00 52 1016.7
20260501212502 72 43 5.0 12.0 0.00 0.00 0.00 54 1016.8
20260501212009 73 26 5.0 11.0 0.00 0.00 0.00 52 1016.9
20260501211506 73 36 6.0 11.0 0.00 0.00 0.00 53 1016.8
20260501211002 73 61 2.0 6.0 0.00 0.00 0.00 52 1016.8
20260501210502 72 309 2.0 13.0 0.00 0.00 0.00 52 1017.0
20260501210003 72 309 4.0 13.0 0.00 0.00 0.00 53 1017.0
20260501205502 72 46 4.0 7.0 0.00 0.00 0.00 54 1017.0
20260501205009 72 22 2.0 8.0 0.00 0.00 0.00 55 1017.0
20260501204503 72 47 4.0 8.0 0.00 0.00 0.00 54 1016.9
20260501204001 72 157 2.0 6.0 0.00 0.00 0.00 58 1017.0
20260501203509 72 162 1.0 5.0 0.00 0.00 0.00 57 1016.9
20260501203025 71 34 2.0 5.0 0.00 0.00 0.00 59 1016.9
20260501202509 71 44 1.0 5.0 0.00 0.00 0.00 59 1017.0
20260501202012 71 140 2.0 8.0 0.00 0.00 0.00 62 1016.9
20260501201522 70 57 3.0 11.0 0.00 0.00 0.00 60 1017.0
20260501201008 70 22 2.0 13.0 0.00 0.00 0.00 63 1017.1
20260501200518 70 54 4.0 13.0 0.00 0.00 0.00 61 1017.1
20260501200023 70 49 6.0 13.0 0.00 0.00 0.00 59 1017.1
20260501195509 70 26 2.0 8.0 0.00 0.00 0.00 61 1017.2
20260501195010 69 93 1.0 8.0 0.00 0.00 0.00 61 1017.2
20260501194523 70 93 1.0 4.0 0.00 0.00 0.00 58 1017.2
20260501194009 70 73 1.0 4.0 0.00 0.00 0.00 57 1017.2
20260501193512 70 146 1.0 4.0 0.00 0.00 0.00 53 1017.3
20260501193030 70 51 2.0 4.0 0.00 0.00 0.00 56 1017.3
20260501192509 70 226 1.0 8.0 0.00 0.00 0.00 56 1017.4
20260501192009 70 34 2.0 8.0 0.00 0.00 0.00 54 1017.3
20260501191530 70 34 2.0 7.0 0.00 0.00 0.00 56 1017.3
20260501191010 69 93 2.0 7.0 0.00 0.00 0.00 57 1017.4
20260501190513 69 78 2.0 6.0 0.00 0.00 0.00 58 1017.4
20260501190024 69 229 1.0 9.0 0.00 0.00 0.00 56 1017.4
20260501185510 69 48 5.0 9.0 0.00 0.00 0.00 57 1017.5
20260501185010 69 44 1.0 7.0 0.00 0.00 0.00 56 1017.6
20260501184528 69 30 4.0 7.0 0.00 0.00 0.00 55 1017.7
20260501184008 69 196 1.0 5.0 0.00 0.00 0.00 60 1017.7
20260501183512 68 265 1.0 6.0 0.00 0.00 0.00 61 1017.7
20260501183027 68 265 2.0 6.0 0.00 0.00 0.00 57 1017.7
20260501182509 68 75 2.0 5.0 0.00 0.00 0.00 60 1017.8
20260501182010 68 265 1.0 4.0 0.00 0.00 0.00 58 1017.8
20260501181532 68 178 0.0 6.0 0.00 0.00 0.00 61 1017.8
20260501181009 67 126 2.0 6.0 0.00 0.00 0.00 63 1017.8
20260501180513 67 221 1.0 7.0 0.00 0.00 0.00 63 1017.9
20260501180034 67 137 2.0 7.0 0.00 0.00 0.00 61 1018.0
20260501175508 67 141 0.0 4.0 0.00 0.00 0.00 63 1017.9
20260501175010 66 246 1.0 6.0 0.00 0.00 0.00 64 1018.0
20260501174526 66 139 2.0 5.0 0.00 0.00 0.00 59 1018.0
20260501174009 66 137 1.0 3.0 0.00 0.00 0.00 61 1018.0
20260501173503 65 265 0.0 3.0 0.00 0.00 0.00 59 1018.1
20260501173002 65 309 1.0 3.0 0.00 0.00 0.00 58 1018.2
20260501172512 65 334 0.0 4.0 0.00 0.00 0.00 60 1018.3
20260501172003 65 247 1.0 4.0 0.00 0.00 0.00 61 1018.3
20260501171504 64 171 1.0 5.0 0.00 0.00 0.00 63 1018.2
20260501171003 63 195 3.0 5.0 0.00 0.00 0.00 64 1018.3
20260501170506 63 132 2.0 5.0 0.00 0.00 0.00 65 1018.3
20260501170004 62 165 2.0 4.0 0.00 0.00 0.00 68 1018.2
20260501165504 61 93 1.0 3.0 0.00 0.00 0.00 68 1018.3
20260501165003 61 61 1.0 4.0 0.00 0.00 0.00 69 1018.2
20260501164505 60 57 1.0 4.0 0.00 0.00 0.00 70 1018.3
20260501164005 59 93 1.0 3.0 0.00 0.00 0.00 71 1018.4